Location: Fort Wayne
(41.1310°N, 85.1290°W)
Time: 21:49:45
(UTC-04:00)

Meteor 2-9 Rocket - Visible Passes

Search period start: 26 July 2016 00:00
Search period end: 05 August 2016 00:00
Orbit: 792 x 895 km, 81.3° (Epoch: 25 July)

Date Brightness Start Highest point End Pass type
(mag) Time Alt. Az. Time Alt. Az. Time Alt. Az.
26 Jul 4.2 03:01:24 69° SE 03:01:56 75° E 03:07:46 10° NNE visible
26 Jul 6.1 04:43:17 13° W 04:45:20 16° WNW 04:48:48 10° NNW visible
27 Jul 4.3 02:47:36 65° ESE 02:47:52 66° E 02:53:38 10° NNE visible
27 Jul 6.0 04:29:28 16° W 04:31:09 18° WNW 04:35:00 10° NNW visible
28 Jul 4.5 02:33:46 59° E 02:33:48 59° E 02:39:29 10° NNE visible
28 Jul 5.8 04:15:38 19° W 04:16:58 20° WNW 04:21:10 10° NNW visible
29 Jul 4.7 02:19:56 51° E 02:19:56 51° E 02:25:20 10° NNE visible
29 Jul 5.7 04:01:48 22° W 04:02:48 22° WNW 04:07:16 10° NNW visible
30 Jul 5.0 02:06:05 45° E 02:06:05 45° E 02:11:09 10° NNE visible
30 Jul 5.6 03:47:57 25° W 03:48:38 25° WNW 03:53:21 10° NNW visible
31 Jul 5.2 01:52:13 39° ENE 01:52:13 39° ENE 01:56:58 10° NNE visible
31 Jul 5.5 03:34:05 28° WNW 03:34:28 28° WNW 03:39:24 10° NNW visible
01 Aug 5.4 01:38:20 34° ENE 01:38:20 34° ENE 01:42:45 10° NNE visible
01 Aug 5.3 03:20:12 31° WNW 03:20:19 32° WNW 03:25:25 10° N visible
02 Aug 5.6 01:24:27 30° ENE 01:24:27 30° ENE 01:28:31 10° NNE visible
02 Aug 5.2 03:06:19 35° WNW 03:06:19 35° WNW 03:11:25 10° N visible
03 Aug 5.7 01:10:33 26° ENE 01:10:33 26° ENE 01:14:16 10° NNE visible
03 Aug 5.1 02:52:24 39° WNW 02:52:24 39° WNW 02:57:25 10° N visible
04 Aug 5.9 00:56:38 23° ENE 00:56:38 23° ENE 00:59:58 10° NE visible
04 Aug 5.0 02:38:29 43° WNW 02:38:29 43° WNW 02:43:23 10° N visible
